When you browse on this site, cookies collect data to enhance your experience and personalize the content and advertising you see.
Visit our Privacy Policy to learn more. By continuing to use the site, you agree to this use of cookies and data.
  • în România
  • Lista ţărilor
  • Pe 7 zile
  • Temperatura apei
  • Hartă satelitară
  • Meteo pe hartă
  • Widget-uri
  • user-avatar
    Intrare

    Meteo pe oră la Saurimo

    Astăzi, 17 Ianuarie, Joi

    Timp Temperatura Precipitaţii Vânt Presiune Umiditate
    00:00 +20°C° 0 mm 1 m/s 671 mmHg 95%
    01:00 +20°C° 0 mm 1 m/s 670 mmHg 95%
    02:00 +20°C° 0 mm 1 m/s 670 mmHg 95%
    03:00 +19°C° 0 mm 1 m/s 670 mmHg 96%
    04:00 +17°C° 0 mm 0 m/s 670 mmHg 96%
    05:00 +20°C° 0 mm 1 m/s 670 mmHg 94%
    06:00 +20°C° 0 mm 1 m/s 671 mmHg 93%
    07:00 +21°C° 0 mm 1 m/s 671 mmHg 90%
    08:00 +23°C° 0.1 mm 1 m/s 671 mmHg 82%
    09:00 +25°C° 0.1 mm 2 m/s 672 mmHg 75%
    10:00 +27°C° 0.1 mm 2 m/s 672 mmHg 67%
    11:00 +27°C° 0.5 mm 2 m/s 672 mmHg 66%
    12:00 +28°C° 0.5 mm 2 m/s 671 mmHg 65%
    13:00 +28°C° 0.5 mm 2 m/s 670 mmHg 65%
    14:00 +28°C° 0.8 mm 2 m/s 670 mmHg 69%
    15:00 +27°C° 0.8 mm 2 m/s 670 mmHg 73%
    16:00 +27°C° 0.8 mm 2 m/s 670 mmHg 78%
    17:00 +25°C° 1.3 mm 2 m/s 669 mmHg 83%
    18:00 +23°C° 1.3 mm 2 m/s 669 mmHg 88%
    19:00 +22°C° 1.3 mm 1 m/s 669 mmHg 93%
    20:00 +21°C° 1 mm 1 m/s 670 mmHg 94%
    21:00 +21°C° 1 mm 1 m/s 670 mmHg 95%
    22:00 +21°C° 1 mm 1 m/s 671 mmHg 96%
    23:00 +21°C° 0.3 mm 1 m/s 671 mmHg 96%

    Mâine, 18 Ianuarie, Vineri

    Timp Temperatura Precipitaţii Vânt Presiune Umiditate
    00:00 +21°C° 0.3 mm 1 m/s 670 mmHg 96%
    01:00 +21°C° 0.3 mm 1 m/s 670 mmHg 97%
    02:00 +20°C° 0 mm 1 m/s 670 mmHg 97%
    03:00 +20°C° 0 mm 1 m/s 669 mmHg 97%
    04:00 +20°C° 0 mm 1 m/s 669 mmHg 97%
    05:00 +20°C° 0 mm 1 m/s 670 mmHg 96%
    06:00 +21°C° 0 mm 1 m/s 670 mmHg 95%
    07:00 +21°C° 0 mm 1 m/s 671 mmHg 94%
    08:00 +23°C° 0.4 mm 2 m/s 671 mmHg 89%
    09:00 +24°C° 0.4 mm 2 m/s 671 mmHg 84%
    10:00 +26°C° 0.4 mm 3 m/s 672 mmHg 79%
    11:00 +26°C° 1.1 mm 3 m/s 671 mmHg 78%
    12:00 +26°C° 1.1 mm 3 m/s 671 mmHg 78%
    13:00 +27°C° 1.1 mm 3 m/s 670 mmHg 77%
    14:00 +26°C° 1 mm 3 m/s 670 mmHg 80%
    15:00 +25°C° 1 mm 2 m/s 669 mmHg 83%
    16:00 +25°C° 1 mm 2 m/s 669 mmHg 86%
    17:00 +24°C° 0.9 mm 2 m/s 669 mmHg 89%
    18:00 +22°C° 0.9 mm 1 m/s 669 mmHg 91%
    19:00 +21°C° 0.9 mm 1 m/s 670 mmHg 94%
    20:00 +21°C° 0.2 mm 1 m/s 670 mmHg 94%
    21:00 +21°C° 0.2 mm 1 m/s 671 mmHg 94%
    22:00 +21°C° 0.2 mm 1 m/s 671 mmHg 94%
    23:00 +18°C° 0.5 mm 0 m/s 671 mmHg 95%

    Poimâine, 19 Ianuarie, Sâmbătă

    Timp Temperatura Precipitaţii Vânt Presiune Umiditate
    00:00 +18°C° 0.5 mm 0 m/s 670 mmHg 95%
    01:00 +18°C° 0.5 mm 0 m/s 670 mmHg 95%
    02:00 +18°C° 0.2 mm 0 m/s 670 mmHg 95%
    03:00 +18°C° 0.2 mm 0 m/s 669 mmHg 95%
    04:00 +20°C° 0.2 mm 1 m/s 669 mmHg 95%
    05:00 +20°C° 0 mm 1 m/s 670 mmHg 94%
    06:00 +21°C° 0 mm 1 m/s 670 mmHg 94%
    07:00 +21°C° 0 mm 1 m/s 671 mmHg 93%
    08:00 +22°C° 0.7 mm 1 m/s 671 mmHg 89%
    09:00 +24°C° 0.7 mm 2 m/s 671 mmHg 86%
    10:00 +25°C° 0.7 mm 2 m/s 672 mmHg 82%
    11:00 +25°C° 0.9 mm 2 m/s 671 mmHg 81%
    12:00 +26°C° 0.9 mm 2 m/s 671 mmHg 80%
    13:00 +26°C° 0.9 mm 2 m/s 670 mmHg 78%
    14:00 +26°C° 0.9 mm 2 m/s 670 mmHg 81%
    15:00 +25°C° 0.9 mm 2 m/s 670 mmHg 84%
    16:00 +25°C° 0.9 mm 2 m/s 669 mmHg 87%
    17:00 +24°C° 1.3 mm 2 m/s 670 mmHg 90%
    18:00 +21°C° 1.3 mm 2 m/s 670 mmHg 92%
    19:00 +20°C° 1.3 mm 2 m/s 671 mmHg 95%
    20:00 +20°C° 0.8 mm 2 m/s 671 mmHg 95%
    21:00 +20°C° 0.8 mm 2 m/s 672 mmHg 96%
    22:00 +19°C° 0.8 mm 2 m/s 672 mmHg 96%
    23:00 +19°C° 0.4 mm 2 m/s 672 mmHg 97%

    20 Ianuarie, Duminică

    Timp Temperatura Precipitaţii Vânt Presiune Umiditate
    00:00 +19°C° 0.4 mm 2 m/s 671 mmHg 97%
    01:00 +19°C° 0.4 mm 2 m/s 670 mmHg 98%
    02:00 +20°C° 0 mm 1 m/s 670 mmHg 98%
    03:00 +19°C° 0 mm 1 m/s 670 mmHg 98%
    04:00 +19°C° 0 mm 1 m/s 670 mmHg 98%
    05:00 +19°C° 0.1 mm 1 m/s 671 mmHg 97%
    06:00 +20°C° 0.1 mm 1 m/s 671 mmHg 96%
    07:00 +18°C° 0.1 mm 0 m/s 672 mmHg 95%
    08:00 +22°C° 0.1 mm 1 m/s 672 mmHg 89%
    09:00 +23°C° 0.1 mm 1 m/s 673 mmHg 83%
    10:00 +25°C° 0.1 mm 1 m/s 673 mmHg 76%
    11:00 +25°C° 0.7 mm 1 m/s 672 mmHg 75%
    12:00 +26°C° 0.7 mm 2 m/s 672 mmHg 74%
    13:00 +26°C° 0.7 mm 2 m/s 671 mmHg 73%
    14:00 +26°C° 1.1 mm 2 m/s 671 mmHg 77%
    15:00 +25°C° 1.1 mm 2 m/s 670 mmHg 80%
    16:00 +25°C° 1.1 mm 2 m/s 670 mmHg 84%
    17:00 +23°C° 0.6 mm 2 m/s 670 mmHg 87%
    18:00 +22°C° 0.6 mm 1 m/s 670 mmHg 90%
    19:00 +21°C° 0.6 mm 1 m/s 671 mmHg 93%
    20:00 +21°C° 0 mm 1 m/s 671 mmHg 93%
    21:00 +19°C° 0 mm 0 m/s 671 mmHg 93%
    22:00 +18°C° 0 mm 0 m/s 672 mmHg 94%
    23:00 +18°C° 0.1 mm 0 m/s 671 mmHg 94%

    21 Ianuarie, Luni

    Timp Temperatura Precipitaţii Vânt Presiune Umiditate
    00:00 +18°C° 0.1 mm 0 m/s 671 mmHg 94%
    01:00 +20°C° 0.1 mm 1 m/s 671 mmHg 94%
    02:00 +20°C° 0 mm 1 m/s 670 mmHg 94%
    03:00 +18°C° 0 mm 0 m/s 670 mmHg 95%
    04:00 +17°C° 0 mm 0 m/s 670 mmHg 95%
    05:00 +20°C° 0 mm 1 m/s 671 mmHg 94%
    06:00 +20°C° 0 mm 1 m/s 671 mmHg 93%
    07:00 +21°C° 0 mm 1 m/s 672 mmHg 92%
    08:00 +23°C° 0 mm 1 m/s 672 mmHg 85%
    09:00 +24°C° 0 mm 1 m/s 672 mmHg 78%
    10:00 +26°C° 0 mm 1 m/s 673 mmHg 71%
    11:00 +27°C° 0 mm 1 m/s 672 mmHg 68%
    12:00 +27°C° 0 mm 1 m/s 671 mmHg 64%
    13:00 +28°C° 0 mm 1 m/s 671 mmHg 61%
    14:00 +28°C° 0 mm 1 m/s 670 mmHg 61%
    15:00 +28°C° 0 mm 1 m/s 670 mmHg 61%
    16:00 +28°C° 0 mm 1 m/s 669 mmHg 61%
    17:00 +26°C° 0.2 mm 1 m/s 670 mmHg 69%
    18:00 +24°C° 0.2 mm 1 m/s 670 mmHg 78%
    19:00 +22°C° 0.2 mm 1 m/s 670 mmHg 87%
    20:00 +21°C° 0.5 mm 1 m/s 670 mmHg 89%
    21:00 +21°C° 0.5 mm 1 m/s 670 mmHg 92%
    22:00 +20°C° 0.5 mm 1 m/s 671 mmHg 94%
    23:00 +20°C° 0 mm 1 m/s 670 mmHg 95%

    22 Ianuarie, Marţi

    Timp Temperatura Precipitaţii Vânt Presiune Umiditate
    00:00 +20°C° 0 mm 1 m/s 670 mmHg 95%
    01:00 +19°C° 0 mm 1 m/s 670 mmHg 95%
    02:00 +19°C° 0 mm 1 m/s 669 mmHg 96%
    03:00 +19°C° 0 mm 1 m/s 669 mmHg 96%
    04:00 +18°C° 0 mm 1 m/s 669 mmHg 96%
    05:00 +19°C° 0 mm 1 m/s 670 mmHg 94%
    06:00 +20°C° 0 mm 1 m/s 670 mmHg 93%
    07:00 +21°C° 0 mm 1 m/s 671 mmHg 91%
    08:00 +23°C° 0 mm 1 m/s 671 mmHg 80%
    09:00 +26°C° 0 mm 1 m/s 672 mmHg 70%
    10:00 +29°C° 0 mm 1 m/s 672 mmHg 59%
    11:00 +29°C° 0.3 mm 1 m/s 672 mmHg 58%
    12:00 +30°C° 0.3 mm 1 m/s 671 mmHg 56%
    13:00 +30°C° 0.3 mm 1 m/s 670 mmHg 55%
    14:00 +29°C° 0.7 mm 2 m/s 670 mmHg 62%
    15:00 +29°C° 0.7 mm 2 m/s 669 mmHg 69%
    16:00 +28°C° 0.7 mm 2 m/s 668 mmHg 76%
    17:00 +26°C° 0.9 mm 2 m/s 669 mmHg 81%
    18:00 +24°C° 0.9 mm 2 m/s 669 mmHg 86%
    19:00 +21°C° 0.9 mm 2 m/s 669 mmHg 91%
    20:00 +21°C° 0 mm 1 m/s 669 mmHg 92%
    21:00 +21°C° 0 mm 1 m/s 669 mmHg 93%
    22:00 +21°C° 0 mm 1 m/s 670 mmHg 93%
    23:00 +20°C° 0 mm 1 m/s 669 mmHg 93%
    Arată mai mult